Location: Leuk
(46.3174°N, 7.6341°E)
Time: 21:00:28
(UTC+00:00)

CZ-2C R/B - Pass Details

Date: 09 March 2021
Orbit: 500 x 567 km, 97.7° (Epoch: 20 April)

Event Time Altitude Azimuth Distance (km) Brightness Sun altitude
Rises 03:58:52 0° 4° (N) 2,703 6.6 -20.5°
Reaches altitude 10° 04:01:10 10° 355° (N) 1,794 5.5 -20.1°
Enters shadow 04:03:32 27° 324° (NW) 1,044 4.0 -19.7°
